User: anonymous   Login
Location: Barrio Pajares
(40.5500°N, 4.1667°W)
Time: 18:13:19
(UTC+00:00)
Language:

SL-16 R/B - Orbit

View from above orbital plane
View from above orbital plane
View from above satellite
View from above satellite

Ground track
Ground track

The orbit data is extracted from the following two-line orbital elements,

1 31793U 07029B   24165.91078781  .00000375  00000-0  21995-3 0  9994
2 31793  70.9767  64.4591 0002360 261.1110 173.9723 14.14635236875730
Epoch (UTC): 13 June 2024 21:51:32
Eccentricity: 0.0002360
inclination: 70.9767°
perigee height: 842 km
apogee height: 845 km
right ascension of ascending node: 64.4591°
argument of perigee: 261.1110°
revolutions per day: 14.14635236
mean anomaly at epoch: 173.9723°
orbit number at epoch: 87573

The dashed part of the orbit path shows where the satellite is in the earth's shadow,  

DLR